Weather History for New Ulm, MN

Change the Weather History Date:

Thursday, April 26, 2012

  Actual Average Record
Temperature  
Mean Temperature 54 °F -  
Max Temperature 62 °F 66 °F 91 °F (1962)
Min Temperature 46 °F 41 °F 25 °F (1950)
Degree Days  
Heating Degree Days 11    
Growing Degree Days 4 (Base 50)    
Moisture  
Dew Point 30 °F    
Average Humidity 46    
Maximum Humidity 82    
Minimum Humidity 17    
Precipitation  
Precipitation 0.00 in - - ()
Sea Level Pressure  
Sea Level Pressure 30.05 in    
Wind  
Wind Speed 10 mph (NE)    
Max Wind Speed 16 mph    
Max Gust Speed 26 mph    
Visibility 10 miles    
Events      
Averages and records for this station are not official NWS values.
T = Trace of Precipitation, MM = Missing Value Source: NWS Daily Summary

Daily Weather History Graph

Daily Weather History Graph

Search for Another Location

Airport:

Trip Planner

Search our weather history database for the weather conditions in past years. The results will help you decide how hot, cold, wet, or windy it might be!

Date:

Astronomy

Apr. 26, 2012 Rise Set
Actual Time 6:15 AM CDT 8:16 PM CDT
Civil Twilight 5:44 AM CDT 8:48 PM CDT
Nautical Twilight 5:05 AM CDT 9:26 PM CDT
Astronomical Twilight 4:23 AM CDT 10:09 PM CDT
Moon 9:50 AM CDT 12:27 AM CDT
Length of Visible Light 15h 03m
Length of Day
14h 01m
Waxing Crescent, 24% of the Moon is Illuminated
Apr 26
Waxing Crescent
Apr 29
First Quarter
May 5
Full
May 12
Last Quarter
May 20
New

Hourly Weather History & Observations

Time (CDT) Temp. Windchill Dew Point Humidity Pressure Visibility Wind Dir Wind Speed Gust Speed Precip Events Conditions
12:12 AM 62.6 °F - 46.4 °F 55% 29.78 in 10.0 mi North 12.7 mph 24.2 mph N/A   Clear
12:33 AM 62.6 °F - 46.4 °F 55% 29.80 in 10.0 mi North 9.2 mph - N/A   Clear
12:52 AM 60.8 °F - 46.4 °F 59% 29.81 in 10.0 mi North 9.2 mph - N/A   Clear
1:12 AM 60.8 °F - 46.4 °F 59% 29.82 in 10.0 mi North 8.1 mph - N/A   Clear
1:33 AM 59.0 °F - 46.4 °F 63% 29.84 in 10.0 mi North 8.1 mph - N/A   Clear
1:52 AM 57.2 °F - 46.4 °F 67% 29.86 in 10.0 mi North 6.9 mph - N/A   Clear
2:33 AM 55.4 °F - 46.4 °F 72% 29.87 in 10.0 mi NNE 13.8 mph 20.7 mph N/A   Clear
2:52 AM 55.4 °F - 46.4 °F 72% 29.89 in 10.0 mi NNE 13.8 mph 23.0 mph N/A   Clear
3:13 AM 53.6 °F - 44.6 °F 72% 29.90 in 10.0 mi NE 13.8 mph 18.4 mph N/A   Clear
3:33 AM 53.6 °F - 44.6 °F 72% 29.91 in 10.0 mi NNE 15.0 mph 20.7 mph N/A   Clear
3:52 AM 51.8 °F - 42.8 °F 71% 29.92 in 10.0 mi NNE 10.4 mph 18.4 mph N/A   Clear
4:13 AM 51.8 °F - 42.8 °F 71% 29.94 in 10.0 mi North 6.9 mph - N/A   Clear
4:33 AM 51.8 °F - 42.8 °F 71% 29.95 in 10.0 mi North 4.6 mph - N/A   Clear
4:52 AM 50.0 °F - 42.8 °F 76% 29.96 in 10.0 mi North 3.5 mph - N/A   Clear
5:13 AM 48.2 °F - 42.8 °F 82% 29.97 in 10.0 mi North 3.5 mph - N/A   Clear
5:33 AM 48.2 °F - 42.8 °F 82% 29.98 in 10.0 mi NNW 11.5 mph - N/A   Clear
5:52 AM 48.2 °F - 42.8 °F 82% 29.98 in 10.0 mi North 9.2 mph - N/A   Clear
6:13 AM 48.2 °F - 41.0 °F 76% 29.99 in 10.0 mi North 8.1 mph - N/A   Clear
6:32 AM 46.4 °F 42.9 °F 39.2 °F 76% 30.00 in 10.0 mi North 6.9 mph - N/A   Clear
6:53 AM 46.4 °F 42.9 °F 39.2 °F 76% 30.01 in 10.0 mi North 6.9 mph - N/A   Clear
7:13 AM 48.2 °F - 39.2 °F 71% 30.01 in 10.0 mi North 9.2 mph - N/A   Clear
7:32 AM 48.2 °F - 39.2 °F 71% 30.03 in 10.0 mi North 8.1 mph - N/A   Clear
7:53 AM 48.2 °F - 39.2 °F 71% 30.03 in 10.0 mi North 10.4 mph 16.1 mph N/A   Clear
8:13 AM 50.0 °F - 39.2 °F 66% 30.04 in 10.0 mi North 9.2 mph 20.7 mph N/A   Clear
8:53 AM 51.8 °F - 39.2 °F 62% 30.05 in 10.0 mi North 16.1 mph 24.2 mph N/A   Clear
9:13 AM 51.8 °F - 39.2 °F 62% 30.06 in 10.0 mi NNE 11.5 mph 17.3 mph N/A   Scattered Clouds
9:32 AM 51.8 °F - 39.2 °F 62% 30.07 in 10.0 mi North 11.5 mph 18.4 mph N/A   Scattered Clouds
9:53 AM 51.8 °F - 35.6 °F 54% 30.08 in 10.0 mi NNE 16.1 mph 21.9 mph N/A   Clear
10:12 AM 51.8 °F - 33.8 °F 50% 30.09 in 10.0 mi NNE 12.7 mph 23.0 mph N/A   Clear
10:32 AM 53.6 °F - 32.0 °F 44% 30.11 in 10.0 mi NNE 12.7 mph 18.4 mph N/A   Clear
10:53 AM 51.8 °F - 32.0 °F 47% 30.10 in 10.0 mi NNE 9.2 mph 21.9 mph N/A   Clear
11:13 AM 53.6 °F - 30.2 °F 41% 30.11 in 10.0 mi NNE 11.5 mph 18.4 mph N/A   Clear
11:32 AM 53.6 °F - 32.0 °F 44% 30.11 in 10.0 mi NE 9.2 mph 17.3 mph N/A   Clear
11:53 AM 53.6 °F - 28.4 °F 38% 30.11 in 10.0 mi NNE 11.5 mph 26.5 mph N/A   Clear
12:12 PM 53.6 °F - 24.8 °F 33% 30.10 in 10.0 mi NNE 12.7 mph 21.9 mph N/A   Clear
12:33 PM 53.6 °F - 21.2 °F 28% 30.11 in 10.0 mi NNE 11.5 mph 18.4 mph N/A   Clear
12:53 PM 53.6 °F - 26.6 °F 35% 30.12 in 10.0 mi NE 9.2 mph 18.4 mph N/A   Clear
1:12 PM 55.4 °F - 23.0 °F 29% 30.12 in 10.0 mi NNE 12.7 mph 18.4 mph N/A   Clear
1:33 PM 55.4 °F - 24.8 °F 31% 30.12 in 10.0 mi North 9.2 mph 23.0 mph N/A   Clear
1:53 PM 55.4 °F - 19.4 °F 25% 30.13 in 10.0 mi ENE 12.7 mph 19.6 mph N/A   Clear
2:12 PM 55.4 °F - 21.2 °F 26% 30.13 in 10.0 mi ENE 10.4 mph 17.3 mph N/A   Clear
2:33 PM 55.4 °F - 23.0 °F 29% 30.12 in 10.0 mi NNE 10.4 mph 18.4 mph N/A   Clear
2:53 PM 55.4 °F - 19.4 °F 25% 30.12 in 10.0 mi ENE 8.1 mph 18.4 mph N/A   Clear
3:12 PM 57.2 °F - 21.2 °F 25% 30.11 in 10.0 mi NE 15.0 mph 18.4 mph N/A   Clear
3:33 PM 55.4 °F - 19.4 °F 25% 30.12 in 10.0 mi East 11.5 mph 19.6 mph N/A   Clear
3:53 PM 55.4 °F - 23.0 °F 29% 30.12 in 10.0 mi East 4.6 mph - N/A   Clear
4:12 PM 57.2 °F - 17.6 °F 21% 30.12 in 10.0 mi ENE 10.4 mph - N/A   Clear
4:33 PM 57.2 °F - 19.4 °F 23% 30.12 in 10.0 mi NE 6.9 mph - N/A   Clear
5:12 PM 57.2 °F - 19.4 °F 23% 30.12 in 10.0 mi ESE 11.5 mph 17.3 mph N/A   Clear
5:33 PM 57.2 °F - 19.4 °F 23% 30.11 in 10.0 mi ENE 12.7 mph 16.1 mph N/A   Clear
5:53 PM 57.2 °F - 12.2 °F 17% 30.12 in 10.0 mi East 12.7 mph - N/A   Clear
6:12 PM 57.2 °F - 15.8 °F 20% 30.12 in 10.0 mi ENE 8.1 mph - N/A   Clear
6:33 PM 57.2 °F - 15.8 °F 20% 30.12 in 10.0 mi ENE 6.9 mph 10.4 mph N/A   Clear
6:52 PM 57.2 °F - 17.6 °F 21% 30.11 in 10.0 mi East 10.4 mph - N/A   Clear
7:12 PM 55.4 °F - 17.6 °F 23% 30.11 in 10.0 mi East 11.5 mph - N/A   Clear
7:33 PM 55.4 °F - 19.4 °F 25% 30.12 in 10.0 mi ENE 6.9 mph - N/A   Clear
7:52 PM 55.4 °F - 17.6 °F 23% 30.11 in 10.0 mi East 9.2 mph - N/A   Clear
8:12 PM 53.6 °F - 19.4 °F 26% 30.12 in 10.0 mi East 6.9 mph - N/A   Clear
8:33 PM 53.6 °F - 21.2 °F 28% 30.12 in 10.0 mi East 6.9 mph - N/A   Clear
8:52 PM 51.8 °F - 21.2 °F 30% 30.12 in 10.0 mi East 9.2 mph - N/A   Clear
9:12 PM 51.8 °F - 21.2 °F 30% 30.13 in 10.0 mi East 6.9 mph - N/A   Clear
9:33 PM 51.8 °F - 23.0 °F 33% 30.13 in 10.0 mi East 8.1 mph - N/A   Clear
9:52 PM 50.0 °F - 24.8 °F 37% 30.13 in 10.0 mi East 6.9 mph - N/A   Clear
10:12 PM 50.0 °F - 21.2 °F 32% 30.13 in 10.0 mi East 8.1 mph - N/A   Clear
10:33 PM 50.0 °F - 21.2 °F 32% 30.13 in 10.0 mi East 9.2 mph - N/A   Clear
10:53 PM 50.0 °F - 21.2 °F 32% 30.13 in 10.0 mi East 9.2 mph - N/A   Clear
11:12 PM 48.2 °F - 23.0 °F 37% 30.14 in 10.0 mi East 5.8 mph - N/A   Clear
11:33 PM 48.2 °F - 24.8 °F 40% 30.12 in 10.0 mi East 8.1 mph - N/A   Clear
11:52 PM 48.2 °F - 24.8 °F 40% 30.12 in 10.0 mi East 8.1 mph - N/A   Clear